Minneapolis, MN

1:05 AM CDT on April 24, 2017 (GMT -0500)
Minneapolis-Saint Paul International

Weather History for KMSP - July, 2014

Change the Weather History Date:

Tuesday, July 22, 2014

  Actual Average Record
Temperature  
Mean Temperature 78 °F 74 °F  
Max Temperature 86 °F 83 °F 105 °F (1934)
Min Temperature 70 °F 64 °F 49 °F (1947)
Degree Days  
Heating Degree Days 0 0  
Month to date heating degree days 7 0  
Since 1 June heating degree days 28 44  
Since 1 July heating degree days 7 0  
Cooling Degree Days 13 9  
Month to date cooling degree days 146 196  
Year to date cooling degree days 360 396  
Since 1 June cooling degree days 308 354  
Growing Degree Days 30 (Base 50)    
Moisture  
Dew Point 64 °F    
Average Humidity 60    
Maximum Humidity 85    
Minimum Humidity 35    
Precipitation  
Precipitation 0.00 in 0.13 in 2.69 in (1997)
Month to date precipitation 1.82 2.83  
Year to date precipitation 27.65 16.66  
Snow  
Snow 0.00 in 0.00 in 0.00 in ()
Month to date snowfall 0.0 0.0  
Since 1 June snowfall 0.0 0.0  
Since 1 July snowfall 0.0 0.0  
Snow Depth 0.00 in    
Sea Level Pressure  
Sea Level Pressure 29.95 in    
Wind  
Wind Speed 13 mph (NW)    
Max Wind Speed 23 mph    
Max Gust Speed 32 mph    
Visibility 10 miles    
Events      
T = Trace of Precipitation, MM = Missing Value Source: NWS Daily Summary

Daily Weather History Graph

Daily Weather History Graph

Search for Another Location

Airport or City:

Trip Planner

Search our weather history database for the weather conditions in past years. The results will help you decide how hot, cold, wet, or windy it might be!

Date:

Astronomy

Jul. 22, 2014 Rise Set
Actual Time 5:47 AM CDT 8:50 PM CDT
Civil Twilight 5:12 AM CDT 9:25 PM CDT
Nautical Twilight 4:27 AM CDT 10:09 PM CDT
Astronomical Twilight 3:33 AM CDT 11:03 PM CDT
Moon 2:23 AM CDT (7/22) 5:27 PM CDT (7/22)
Length of Visible Light 16h 12m
Length of Day
15h 02m
Waning Crescent, 16% of the Moon is Illuminated
Jul 22
Waning Crescent
Jul 26
New
Aug 3
First Quarter
Aug 10
Full
Aug 17
Last Quarter

Hourly Weather History & Observations

Time (CDT) Temp. Heat Index Dew Point Humidity Pressure Visibility Wind Dir Wind Speed Gust Speed Precip Events Conditions
12:53 AM 82.0 °F 88.6 °F 75.0 °F 79% 29.78 in 9.0 mi SSE 11.5 mph - N/A   Scattered Clouds
1:53 AM 82.0 °F 89.4 °F 75.9 °F 82% 29.77 in 9.0 mi South 15.0 mph 20.7 mph N/A   Scattered Clouds
2:53 AM 82.0 °F 89.4 °F 75.9 °F 82% 29.78 in 8.0 mi SSW 8.1 mph - N/A   Scattered Clouds
3:53 AM 82.0 °F 89.4 °F 75.9 °F 82% 29.78 in 9.0 mi SW 6.9 mph - N/A   Mostly Cloudy
4:53 AM 81.0 °F 87.3 °F 75.9 °F 85% 29.78 in 8.0 mi SW 9.2 mph - N/A   Mostly Cloudy
5:20 AM 81.0 °F 87.9 °F 77.0 °F 88% 29.82 in 8.0 mi West 10.4 mph - N/A   Mostly Cloudy
5:53 AM 78.1 °F - 70.0 °F 76% 29.84 in 10.0 mi WNW 17.3 mph 27.6 mph N/A   Scattered Clouds
6:53 AM 75.0 °F - 63.0 °F 66% 29.87 in 10.0 mi NW 15.0 mph 26.5 mph N/A   Scattered Clouds
7:53 AM 73.9 °F - 64.9 °F 73% 29.92 in 10.0 mi West 11.5 mph - N/A   Partly Cloudy
8:53 AM 75.2 °F - 64.4 °F 69% 29.94 in 10.0 mi NNW 18.4 mph - N/A   Scattered Clouds
9:38 AM 78.1 °F - 64.0 °F 62% 29.89 in 10.0 mi North 19.6 mph 28.8 mph N/A   Scattered Clouds
9:53 AM 77.0 °F - 64.0 °F 64% 29.90 in 10.0 mi NW 12.7 mph 25.3 mph N/A   Scattered Clouds
10:53 AM 80.1 °F 81.9 °F 64.9 °F 60% 29.95 in 10.0 mi NNW 16.1 mph - N/A   Mostly Cloudy
11:53 AM 79.0 °F - 64.0 °F 60% 29.97 in 10.0 mi NW 15.0 mph - N/A   Mostly Cloudy
12:20 PM 82.0 °F 83.4 °F 64.0 °F 54% 30.00 in 10.0 mi NNW 15.0 mph - N/A   Mostly Cloudy
12:53 PM 82.0 °F 83.4 °F 64.0 °F 54% 29.98 in 10.0 mi North 12.7 mph - N/A   Mostly Cloudy
1:53 PM 82.0 °F 83.4 °F 64.0 °F 54% 29.99 in 10.0 mi WNW 12.7 mph 19.6 mph N/A   Scattered Clouds
2:53 PM 84.9 °F 84.8 °F 60.1 °F 43% 30.01 in 10.0 mi NW 17.3 mph 25.3 mph N/A   Scattered Clouds
3:53 PM 84.0 °F 84.0 °F 60.1 °F 44% 30.02 in 10.0 mi NNW 15.0 mph 21.9 mph N/A   Scattered Clouds
4:53 PM 86.0 °F 84.7 °F 55.9 °F 36% 30.03 in 10.0 mi North 11.5 mph - N/A   Scattered Clouds
5:53 PM 82.9 °F 82.8 °F 59.0 °F 44% 30.05 in 10.0 mi NW 10.4 mph - N/A   Partly Cloudy
6:53 PM 82.0 °F 81.4 °F 55.0 °F 39% 30.06 in 10.0 mi WNW 17.3 mph 24.2 mph N/A   Partly Cloudy
7:53 PM 79.0 °F - 54.0 °F 42% 30.09 in 10.0 mi NNW 13.8 mph 21.9 mph N/A   Partly Cloudy
8:53 PM 77.0 °F - 53.6 °F 44% 30.11 in 10.0 mi North 10.4 mph - N/A   Partly Cloudy
9:53 PM 75.0 °F - 53.1 °F 46% 30.12 in 10.0 mi North 6.9 mph - N/A   Clear
10:53 PM 73.0 °F - 55.0 °F 53% 30.13 in 10.0 mi North 10.4 mph - N/A   Clear
11:53 PM 71.1 °F - 55.9 °F 59% 30.15 in 10.0 mi NNW 9.2 mph - N/A   Clear